Wind_Speed
32 30 28 28 25 22 21 23 27 26 24 29 30 29 28 27 28 27 29 30 32 33 35 37 41 46 47 49 50 49 49 52 53 56 59 58 59 60 60 60 58 61 62 63 63
28 25 24 23 23 31 27 23 29 20 28 20 25 25 24 18 24 25 23 26 27 25 33 38 43 45 47 52 56 56 59 58 57 58 59 60 63 64 64 63 64 61 63 64 64
25 23 26 24 23 30 29 33 24 31 30 32 37 32 32 31 29 24 26 19 22 21 38 40 39 42 50 54 55 58 63 65 67 67 65 65 65 63 65 66 70 67 70 68 67
25 23 27 31 30 28 28 27 29 35 37 41 37 40 41 39 40 43 44 41 42 40 39 51 56 53 43 50 58 62 66 67 72 73 74 75 73 72 69 75 69 69 70 70 68
25 24 24 30 31 31 33 29 33 34 35 39 41 42 43 52 48 47 49 48 49 46 47 54 67 64 52 48 52 63 68 74 73 74 78 80 80 80 76 82 75 78 76 77 74
24 26 29 31 33 33 36 34 36 36 38 41 42 45 49 53 53 54 52 58 56 59 57 59 74 75 67 59 48 53 65 76 77 84 80 82 83 82 86 85 83 84 83 82 79
30 32 36 38 39 39 35 36 41 41 43 41 44 45 50 53 56 57 54 61 62 63 64 68 76 77 78 69 54 51 58 69 81 84 85 86 79 82 94 89 88 86 86 86 84
30 33 37 39 42 45 46 45 43 44 46 50 49 49 51 53 59 61 63 61 64 68 66 67 79 85 91 79 67 56 56 65 75 86 89 85 80 89 92 89 87 86 85 82 84
36 38 41 41 42 45 47 47 51 49 51 54 56 55 56 58 61 67 67 69 66 72 74 76 82 93 93 88 74 68 58 60 70 82 90 83 79 90 91 91 87 84 83 84 84
37 39 42 44 42 44 49 52 54 54 57 59 62 62 62 62 65 69 74 74 75 79 82 83 88 97 101 94 81 73 65 57 62 72 82 82 72 80 91 94 88 83 83 83 86
37 40 45 49 52 50 48 52 56 58 61 65 68 68 70 70 71 75 80 77 80 82 85 87 95 102 109 97 85 75 64 59 60 69 71 75 68 71 82 91 90 84 82 83 88
43 45 49 50 51 53 55 56 59 61 63 65 71 72 74 78 78 80 84 82 83 86 93 93 96 111 110 105 88 75 62 61 57 66 62 68 60 65 74 84 86 87 87 84 88
43 49 52 55 52 53 55 58 63 65 65 66 70 78 79 80 84 86 89 86 88 90 97 98 102 114 109 102 92 74 68 57 55 64 60 63 56 63 71 79 82 83 85 85 87
47 50 55 57 60 60 61 62 65 69 68 70 74 80 85 85 90 92 93 90 90 94 98 101 110 110 113 97 88 68 70 55 55 56 56 61 50 58 64 73 80 80 83 84 87
51 52 55 60 63 68 66 67 69 76 78 78 81 85 89 92 97 99 96 96 95 99 106 104 120 116 114 95 83 71 64 57 53 52 51 55 53 50 63 69 76 77 81 84 86
53 55 57 62 65 71 72 73 73 82 81 83 88 91 96 101 103 108 103 100 99 99 114 114 121 114 103 90 82 71 61 54 52 49 40 55 59 47 59 66 69 70 74 79 84
60 59 63 66 70 74 78 80 83 88 90 90 93 96 102 104 108 110 108 105 106 110 116 115 124 116 96 84 78 70 61 52 48 50 43 52 53 43 57 63 66 66 67 71 77
62 62 65 69 74 77 81 85 87 92 96 99 99 100 107 108 113 115 112 110 111 119 122 122 117 108 91 80 73 69 61 52 46 47 46 47 49 44 55 59 61 61 64 67 72
65 66 68 73 75 79 84 88 90 94 99 102 101 106 109 110 119 117 112 111 121 123 127 121 107 98 88 78 68 63 60 54 48 45 43 48 51 50 53 56 59 59 62 67 71
69 71 72 77 78 82 86 90 94 100 105 107 109 113 113 115 122 119 117 114 126 127 128 119 99 85 82 78 67 57 55 52 48 43 41 48 52 51 51 54 56 60 61 63 70
73 73 74 77 81 84 85 93 98 104 108 110 113 116 119 127 124 122 124 120 131 127 127 114 93 76 77 70 65 64 47 49 49 44 41 46 51 52 51 55 58 58 62 64 68
76 76 77 82 86 87 91 97 101 107 113 115 118 118 125 133 127 125 131 131 136 131 125 106 90 74 72 67 59 59 55 44 47 44 43 47 48 53 54 54 57 61 64 68 69
78 80 82 85 89 92 97 100 105 112 117 120 123 125 135 134 134 127 134 136 139 128 116 95 87 70 68 64 56 56 54 49 41 44 46 47 49 53 55 53 56 59 59 65 72
78 83 86 90 94 97 101 107 113 116 121 123 128 129 139 137 133 131 138 139 134 119 105 92 81 72 62 64 58 55 54 52 44 43 48 48 52 55 56 56 58 59 63 65 67
81 87 91 94 99 101 108 113 116 121 126 129 133 136 143 137 133 136 137 135 122 107 97 88 79 70 61 60 58 55 57 52 50 46 48 55 55 52 57 59 61 62 64 66 68
88 90 95 98 103 107 112 116 121 126 132 133 135 141 143 137 144 140 143 130 109 97 90 85 75 67 63 55 53 53 56 58 51 50 50 57 55 51 55 58 60 63 63 65 68
91 96 99 103 107 112 116 119 126 127 136 137 140 143 140 143 147 149 139 120 104 92 84 76 70 62 60 54 51 49 53 57 54 48 50 56 53 50 53 57 61 64 65 65 68
Wind_Direction
2 6 8 7 9 359 350 346 351 7 12 12 10 5 1 347 336 314 303 304 299 295 292 287 280 271 267 264 260 256 258 260 259 259 258 255 254 254 254 252 251 251 252 253 252
6 10 21 31 37 35 38 39 31 39 40 37 38 29 42 32 26 21 2 7 4 326 309 301 287 282 276 270 266 263 258 253 252 255 255 256 256 254 253 253 252 251 251 252 253
23 33 42 49 54 39 36 36 30 36 22 28 34 32 27 20 14 18 21 16 6 346 4 354 344 293 279 275 270 265 261 261 257 252 250 251 251 252 253 255 253 252 252 251 251
32 33 30 30 30 31 35 30 32 30 23 18 17 21 21 19 16 10 9 10 360 356 357 359 357 353 330 287 274 271 266 262 261 258 255 250 250 248 248 251 251 252 253 252 251
23 25 35 25 29 25 18 17 14 14 13 11 11 9 5 8 4 7 6 357 359 359 353 353 351 347 332 329 287 273 268 268 265 260 258 255 253 249 249 247 249 251 251 252 252
7 12 17 15 17 16 13 14 10 12 9 6 6 3 5 1 357 1 356 355 355 354 354 349 345 345 333 325 315 286 271 267 264 264 259 257 254 254 252 248 247 248 250 251 251
7 7 5 7 5 2 4 5 7 1 1 1 3 0 357 355 355 352 356 353 351 346 351 346 345 338 336 327 315 301 276 267 264 261 261 260 254 255 252 253 250 247 249 250 250
14 10 359 1 359 359 360 359 359 356 357 357 356 356 355 352 352 354 351 347 346 345 344 340 341 335 335 331 318 299 280 266 262 263 260 256 255 251 254 252 252 252 250 250 251
356 359 352 353 353 350 352 355 353 353 356 351 352 352 351 347 347 349 348 348 345 344 345 342 340 334 330 328 325 310 288 270 261 262 261 259 251 253 251 251 249 250 252 249 248
355 355 353 348 348 348 347 348 347 351 350 348 349 347 347 343 344 344 345 345 345 343 345 341 335 332 333 327 320 316 298 280 271 262 260 261 255 249 252 251 250 248 248 249 250
352 352 352 349 343 342 346 349 343 346 345 344 346 345 344 342 343 341 341 340 342 341 338 340 336 331 333 326 318 312 302 291 274 266 264 260 256 251 249 250 248 248 246 247 249
350 349 353 347 342 341 339 343 341 343 344 342 343 342 342 342 342 341 342 342 340 338 339 338 332 333 332 328 315 308 300 289 278 272 268 262 254 247 245 246 245 245 245 245 246
343 347 344 347 341 338 338 340 343 342 342 341 341 340 339 339 340 339 342 342 340 337 335 338 330 334 329 326 315 308 298 290 282 272 267 261 256 250 242 242 244 243 243 244 245
339 342 343 342 338 336 338 336 341 340 341 338 337 338 336 336 340 340 338 340 336 337 336 334 332 328 329 322 314 307 297 291 283 273 269 264 255 254 248 246 244 239 240 240 241
335 336 339 336 339 338 335 336 337 339 341 339 336 335 337 336 338 338 338 337 337 336 334 332 333 328 328 319 312 306 297 291 283 272 267 266 256 249 248 244 243 240 238 237 236
332 333 334 335 336 338 336 336 338 337 338 335 335 334 335 336 337 336 336 338 334 333 334 332 331 327 324 318 310 306 298 290 283 272 264 257 257 247 250 247 245 243 242 239 236
330 327 333 332 330 334 332 336 338 337 338 336 335 333 335 335 335 336 336 337 334 331 334 332 329 325 319 315 308 304 298 290 281 272 259 255 256 240 245 244 243 242 240 238 237
325 324 331 330 327 330 331 332 335 334 337 335 334 334 333 335 335 335 336 334 333 333 330 330 328 322 315 312 306 302 297 290 279 269 261 254 254 243 243 244 242 239 236 234 233
321 325 328 328 328 329 331 331 331 332 334 335 332 331 334 332 333 333 334 333 334 330 329 327 327 320 312 309 307 300 294 288 279 270 259 251 248 241 242 241 242 239 237 232 229
319 322 327 326 327 330 330 329 330 332 333 332 332 332 333 332 334 334 333 332 332 329 329 324 324 317 309 308 306 297 290 286 279 269 259 252 246 245 241 241 239 237 235 231 229
318 324 323 326 329 330 329 330 331 332 332 331 331 334 332 331 335 332 332 330 329 328 325 323 322 315 307 304 303 298 288 282 276 271 259 250 247 244 240 239 238 232 231 230 229
320 323 321 324 329 329 329 330 330 330 331 331 333 333 331 333 333 331 332 329 329 325 323 321 318 315 305 303 298 292 288 277 274 269 261 250 245 244 239 237 238 233 228 229 229
318 321 321 325 328 330 330 329 328 329 329 331 332 331 330 333 331 331 330 328 326 323 321 318 315 312 304 299 292 286 281 276 268 264 259 253 245 241 241 238 237 237 234 234 230
319 321 322 325 327 328 329 329 329 329 331 331 332 329 329 332 332 329 330 327 324 323 318 317 313 308 301 293 287 282 276 273 267 257 256 252 245 241 237 235 235 233 234 230 230
319 319 322 325 326 327 329 330 329 329 330 331 330 328 330 331 331 328 328 323 324 321 317 314 311 307 297 289 287 280 276 268 263 255 249 247 245 238 237 233 233 233 230 230 232
318 321 324 325 325 327 329 329 329 330 329 331 330 329 330 330 330 328 325 324 322 320 316 313 310 304 295 292 283 277 272 270 261 256 250 247 245 242 239 238 232 233 235 232 231
318 320 321 324 325 326 327 327 328 329 329 330 329 332 331 332 330 325 327 324 322 320 316 313 307 303 297 292 285 278 271 270 267 258 251 248 247 242 241 238 236 232 232 233 233
Height
10726 10722 10718 10714 10711 10707 10704 10702 10699 10696 10693 10689 10686 10680 10678 10674 10670 10667 10665 10662 10661 10660 10659 10658 10656 10653 10650 10647 10645 10644 10645 10643 10645 10646 10646 10647 10647 10647 10649 10651 10656 10657 10663 10666 10670
10727 10723 10718 10714 10711 10708 10705 10703 10700 10697 10693 10689 10686 10680 10678 10674 10670 10666 10662 10660 10657 10655 10652 10649 10645 10643 10642 10640 10637 10635 10632 10628 10628 10630 10631 10632 10634 10636 10635 10637 10638 10646 10647 10650 10654
10729 10725 10720 10716 10713 10711 10708 10705 10701 10699 10693 10689 10684 10679 10676 10671 10669 10664 10659 10654 10651 10648 10644 10640 10634 10630 10627 10625 10622 10621 10618 10616 10614 10612 10613 10613 10616 10621 10620 10620 10621 10630 10629 10636 10640
10733 10729 10725 10722 10718 10713 10709 10706 10702 10697 10694 10689 10683 10678 10674 10669 10663 10658 10655 10648 10643 10638 10634 10629 10624 10621 10615 10609 10607 10608 10599 10600 10597 10598 10599 10594 10599 10599 10606 10598 10608 10610 10613 10616 10622
10735 10732 10728 10724 10720 10716 10711 10706 10701 10695 10690 10685 10680 10674 10668 10665 10659 10651 10647 10642 10635 10629 10624 10617 10611 10605 10599 10596 10592 10588 10582 10582 10579 10578 10577 10578 10580 10578 10589 10577 10591 10588 10594 10596 10603
10735 10732 10728 10724 10719 10715 10710 10704 10699 10693 10688 10682 10674 10669 10664 10659 10651 10644 10637 10630 10622 10618 10611 10604 10597 10589 10583 10576 10574 10572 10567 10559 10555 10553 10552 10553 10556 10565 10560 10561 10570 10570 10572 10577 10584
10735 10731 10726 10722 10718 10713 10708 10703 10697 10690 10684 10678 10670 10664 10657 10652 10645 10636 10628 10622 10614 10608 10600 10591 10584 10574 10567 10560 10555 10549 10546 10538 10530 10522 10521 10525 10540 10545 10524 10542 10546 10552 10557 10559 10562
10733 10728 10724 10720 10716 10711 10705 10699 10693 10686 10679 10673 10665 10657 10649 10642 10635 10628 10620 10611 10603 10595 10588 10577 10567 10557 10548 10542 10535 10525 10519 10516 10504 10491 10490 10494 10517 10510 10506 10517 10524 10532 10537 10544 10545
10730 10726 10722 10717 10712 10707 10701 10695 10688 10680 10673 10666 10657 10649 10641 10633 10624 10616 10608 10598 10588 10580 10572 10561 10550 10537 10528 10517 10510 10499 10493 10486 10481 10465 10460 10467 10484 10481 10482 10488 10501 10509 10519 10525 10524
10728 10723 10718 10714 10708 10703 10696 10688 10681 10673 10666 10659 10649 10640 10630 10622 10612 10604 10596 10584 10573 10562 10553 10544 10529 10513 10503 10490 10480 10468 10463 10461 10453 10441 10431 10440 10461 10459 10457 10460 10477 10487 10496 10504 10503
10725 10721 10715 10709 10702 10697 10690 10683 10675 10665 10656 10648 10638 10628 10618 10610 10600 10591 10581 10569 10556 10543 10533 10525 10510 10492 10481 10467 10453 10441 10434 10434 10423 10409 10411 10415 10433 10438 10433 10432 10448 10463 10470 10481 10482
10720 10716 10708 10703 10697 10689 10682 10675 10667 10659 10650 10640 10629 10619 10608 10597 10588 10578 10567 10554 10540 10527 10515 10506 10491 10470 10457 10443 10428 10418 10409 10403 10404 10390 10396 10390 10411 10410 10407 10406 10421 10435 10444 10456 10461
10716 10709 10704 10698 10692 10685 10675 10666 10657 10649 10640 10632 10620 10609 10597 10586 10576 10562 10550 10537 10524 10511 10497 10485 10467 10451 10434 10421 10401 10396 10380 10381 10383 10366 10372 10372 10388 10383 10384 10385 10392 10407 10418 10431 10437
10708 10703 10698 10691 10684 10676 10665 10655 10645 10638 10631 10620 10610 10599 10586 10574 10563 10547 10534 10520 10509 10495 10480 10468 10450 10431 10415 10398 10377 10379 10355 10358 10357 10354 10352 10349 10368 10360 10364 10367 10370 10380 10390 10402 10412
10703 10695 10689 10682 10674 10666 10657 10646 10634 10624 10614 10605 10594 10581 10569 10556 10542 10529 10515 10503 10490 10475 10458 10449 10428 10404 10389 10369 10355 10352 10342 10335 10335 10336 10336 10332 10336 10343 10337 10342 10345 10356 10365 10376 10386
10696 10688 10680 10673 10665 10655 10645 10634 10620 10611 10599 10590 10578 10565 10553 10533 10520 10508 10492 10478 10466 10456 10437 10424 10402 10379 10366 10350 10331 10326 10324 10318 10314 10315 10324 10307 10306 10328 10322 10323 10327 10337 10347 10358 10368
10687 10680 10670 10662 10651 10642 10631 10620 10607 10598 10586 10576 10562 10548 10535 10520 10503 10484 10472 10457 10439 10423 10417 10407 10383 10353 10337 10328 10311 10304 10301 10299 10298 10294 10300 10292 10294 10311 10303 10305 10309 10319 10328 10340 10352
10677 10669 10660 10651 10641 10630 10617 10606 10593 10584 10569 10557 10545 10532 10517 10500 10486 10466 10449 10433 10417 10399 10383 10375 10369 10330 10314 10302 10295 10281 10280 10277 10277 10277 10279 10278 10279 10289 10286 10288 10292 10300 10309 10318 10330
10667 10658 10649 10639 10628 10617 10602 10591 10580 10569 10558 10545 10529 10517 10501 10481 10462 10446 10431 10413 10397 10380 10360 10342 10342 10310 10285 10276 10273 10267 10259 10256 10256 10259 10263 10260 10259 10264 10269 10272 10275 10284 10291 10299 10308
10657 10648 10638 10627 10615 10603 10589 10578 10563 10550 10537 10525 10511 10498 10481 10467 10447 10420 10402 10389 10367 10351 10333 10314 10312 10293 10265 10250 10247 10250 10241 10238 10236 10241 10245 10242 10243 10248 10255 10258 10261 10266 10275 10284 10293
10647 10637 10627 10615 10602 10589 10576 10563 10548 10534 10520 10507 10493 10476 10459 10445 10426 10406 10383 10359 10345 10325 10303 10285 10279 10272 10245 10237 10227 10216 10227 10221 10216 10222 10226 10226 10226 10231 10238 10239 10243 10250 10256 10264 10273
10634 10624 10613 10601 10588 10576 10562 10547 10532 10518 10503 10489 10473 10456 10437 10419 10405 10381 10357 10333 10313 10295 10283 10260 10249 10245 10225 10216 10212 10201 10197 10204 10200 10203 10206 10207 10212 10213 10218 10223 10228 10232 10238 10246 10257
10621 10611 10600 10588 10574 10562 10547 10532 10518 10503 10487 10468 10449 10434 10416 10396 10374 10356 10336 10310 10284 10266 10249 10240 10222 10221 10204 10195 10190 10182 10178 10179 10186 10185 10185 10189 10194 10195 10202 10211 10215 10219 10228 10232 10236
10610 10600 10587 10573 10560 10546 10532 10519 10500 10484 10468 10452 10434 10415 10397 10378 10347 10324 10306 10284 10256 10236 10214 10208 10201 10190 10184 10169 10165 10161 10159 10159 10166 10167 10166 10169 10171 10177 10184 10192 10198 10204 10209 10216 10222
10596 10584 10571 10558 10545 10532 10518 10502 10485 10467 10447 10431 10411 10391 10368 10350 10334 10304 10281 10260 10232 10210 10192 10181 10172 10162 10156 10148 10143 10140 10134 10139 10141 10147 10148 10143 10149 10162 10166 10171 10178 10185 10192 10199 10206
10578 10567 10555 10541 10529 10515 10500 10485 10467 10448 10429 10414 10395 10373 10347 10319 10293 10275 10250 10223 10210 10192 10170 10152 10146 10136 10125 10128 10122 10118 10113 10110 10121 10125 10128 10126 10134 10146 10150 10157 10164 10169 10176 10185 10191
10560 10549 10536 10525 10512 10497 10483 10466 10446 10431 10408 10388 10373 10352 10321 10297 10271 10240 10213 10194 10179 10166 10147 10133 10120 10113 10102 10103 10101 10100 10095 10092 10096 10105 10111 10111 10120 10130 10134 10140 10146 10153 10159 10167 10174